Torna al catalogo

INDOSTAR 1

AttivoComunicazioniGEO
NORAD 25050·PAYLOAD·🇮🇩 Indonesia

Lanciato Nov 11, 1997 da Guiana Space Centre

Loading…

TLE

AggiornatoSource: Space-Track

Epoca: Sep 14, 2026, 10:39 UTC

1 25050U 97071B   26257.44434458  .00000008  00000-0  00000-0 0  9992
2 25050  13.0547  19.3522 0002398 263.4129 290.2104  1.00355395105695

Traccia INDOSTAR 1 in tempo reale con AllMySat

Download on the App Store